GFSSW_850_temp_000.txt.gz
Temp
17 17 17 17 18 18 18 18 18 18 18 19 19 19 19 19 20 20 21 21 21 20 20 19 19 18 18 18 17 17 12 11 14 14 17 18 18 20 20 19 19 20 21 22 21
17 17 17 17 18 18 18 18 18 18 18 18 19 19 19 19 20 21 21 21 21 20 20 20 19 18 18 17 17 15 10 13 14 14 17 18 18 20 19 19 18 20 21 21 21
17 17 17 17 18 18 18 18 18 18 18 19 19 19 19 19 20 21 21 21 21 20 19 19 19 18 17 17 16 14 13 13 16 18 18 17 17 19 17 15 20 20 22 21 21
16 17 17 17 17 17 18 18 18 18 18 18 18 18 18 18 17 21 21 21 20 20 19 18 17 17 15 15 17 15 15 16 17 19 18 17 18 17 17 20 21 21 20 20 20
16 16 16 17 17 17 17 18 18 18 18 18 18 18 18 17 19 21 20 20 20 19 19 18 17 17 15 14 15 13 14 17 18 17 17 18 16 15 16 21 22 21 20 21 21
15 16 16 16 17 17 17 17 18 18 18 18 18 18 18 15 20 20 20 20 20 19 19 18 17 18 17 16 14 15 15 15 16 17 17 16 17 16 19 21 22 21 23 22 21
15 15 15 15 16 16 17 17 17 18 18 18 18 18 17 19 20 20 20 20 19 19 18 18 17 17 16 15 16 16 14 12 12 16 12 15 13 11 22 20 21 23 23 23 23
13 14 14 15 15 16 16 16 17 18 18 18 17 17 17 20 20 20 20 20 18 17 17 16 16 16 16 15 14 14 13 13 15 12 15 15 13 17 20 20 20 22 22 22 22
12 12 13 14 14 15 15 16 17 17 18 17 17 16 17 19 19 19 19 18 17 17 16 15 16 16 15 11 11 10 11 10 11 13 13 12 12 14 20 17 18 20 20 20 21
12 12 12 12 13 14 14 16 17 17 17 16 15 15 18 19 19 19 18 16 15 15 15 14 14 11 8 10 12 11 9 9 10 14 11 11 10 13 17 16 14 15 18 18 19
11 11 11 11 12 13 14 15 15 15 14 17 16 17 18 18 18 18 16 14 14 14 11 12 9 10 13 10 14 12 11 10 10 12 12 13 14 14 14 14 15 16 16 17 17
10 10 10 11 11 11 12 13 12 12 11 17 17 16 17 15 15 15 14 15 13 11 9 9 9 11 12 12 10 10 10 11 12 12 11 11 12 13 13 14 15 16 16 16 18
11 10 10 10 11 11 11 11 12 11 8 14 15 14 15 14 14 15 15 13 12 10 9 12 13 11 10 11 11 9 9 12 11 11 9 8 12 10 12 12 14 15 18 16 18
11 11 11 11 11 11 11 11 12 10 8 10 12 12 13 13 13 12 12 13 11 11 9 9 10 11 9 10 10 12 10 10 10 10 10 11 12 12 13 13 13 15 16 20 21
10 10 10 9 9 10 10 10 11 10 10 12 12 12 12 12 11 11 11 12 11 10 11 12 12 11 10 10 9 11 12 10 10 9 8 10 8 14 12 13 13 13 18 18 20
10 10 9 9 9 10 10 10 10 10 10 13 12 12 12 11 10 10 10 11 11 10 8 9 10 10 11 9 9 11 11 8 6 7 8 10 10 16 12 14 16 15 20 19 19
9 9 8 9 9 9 10 9 10 9 12 13 13 11 11 12 11 9 9 9 10 12 10 11 10 9 11 11 10 11 10 7 7 5 9 8 8 15 15 15 14 13 17 18 18
9 9 9 9 8 8 9 9 9 10 10 11 12 10 11 11 11 9 8 9 8 10 9 10 12 10 9 10 11 8 10 7 9 7 12 5 9 15 16 15 17 15 16 15 16
8 8 8 9 9 8 8 8 10 9 10 11 11 10 9 10 10 9 7 8 9 8 11 8 9 10 8 10 11 9 9 10 9 9 7 12 11 13 15 13 13 13 14 14 14
7 7 6 8 8 8 7 9 8 10 11 11 10 11 10 10 9 9 8 9 9 7 10 11 11 10 11 10 9 10 10 9 6 8 9 10 11 13 14 16 13 11 10 13 13
7 5 7 8 7 6 7 8 10 11 11 10 10 10 10 10 10 10 9 9 9 10 8 10 9 10 10 8 10 9 8 8 8 8 10 10 12 14 15 15 9 8 11 8 5
5 4 6 7 6 6 7 8 9 9 10 8 9 10 9 9 9 9 10 10 11 10 9 8 9 8 9 8 9 9 10 9 9 9 9 10 10 12 11 11 5 1 -0 1 3
2 4 5 6 6 6 7 7 8 8 8 8 8 8 9 9 8 9 9 10 10 9 8 8 6 7 7 8 5 6 8 8 8 5 7 7 8 12 8 -0 0 -0 -1 -1 0
1 1 4 4 5 5 6 7 7 9 8 8 8 8 7 7 8 8 7 7 6 7 7 6 5 7 7 8 7 7 7 6 6 6 7 6 7 9 -1 -2 -3 -1 -1 -1 -1
-0 0 1 1 3 4 5 5 5 5 7 8 7 7 6 6 6 6 6 6 5 5 5 5 6 6 7 6 4 4 4 4 4 5 5 6 6 2 -4 -3 -3 -3 -2 -2 -1
-1 -1 -0 -1 0 1 3 4 5 5 6 5 6 5 6 5 5 4 3 2 4 3 3 4 3 2 2 3 4 4 4 4 4 4 4 4 3 -3 -3 -2 -2 -2 -3 -3 -3
-2 -2 -2 -0 -1 -1 -0 1 2 2 1 1 0 2 2 2 -0 -1 -1 -0 1 0 1 1 2 2 2 3 2 1 3 3 4 5 1 2 -3 -4 -4 -2 -1 -1 -3 -3 -4

GFSSW_850_temp_003.txt.gz
Temp
17 17 17 17 18 18 18 18 18 18 18 18 18 19 19 19 20 20 21 21 21 20 19 19 19 18 18 18 17 17 13 12 15 13 16 18 17 18 19 20 19 20 21 21 21
17 17 17 17 17 17 18 18 18 18 18 18 18 18 19 19 20 21 21 21 20 20 19 19 19 18 17 17 16 15 11 13 14 13 15 18 17 18 18 19 18 19 20 21 21
16 16 17 17 17 17 17 17 18 18 18 18 18 18 18 19 20 21 21 21 21 20 19 18 18 18 17 16 16 13 13 13 15 18 17 16 16 18 17 15 20 19 21 21 20
16 16 16 16 17 17 17 17 18 18 18 18 18 18 18 18 17 21 21 20 20 20 18 18 17 17 15 14 16 14 15 15 17 18 17 16 17 16 17 19 21 21 20 20 20
16 16 16 16 17 17 17 17 17 18 18 18 18 18 18 17 19 20 20 20 20 19 19 18 17 17 14 14 14 12 13 16 17 16 17 17 16 14 16 20 21 21 20 21 21
15 15 15 15 16 16 16 16 17 17 18 18 18 18 17 15 20 20 20 20 20 20 19 18 18 17 16 15 14 14 14 14 15 16 16 15 16 16 18 20 21 21 22 22 22
14 15 15 15 15 16 16 16 17 17 17 17 17 17 17 19 20 20 20 20 19 18 18 18 17 17 16 14 15 15 14 12 12 15 13 14 12 12 21 19 19 21 21 22 22
13 13 14 14 14 15 15 16 17 17 18 18 17 17 17 19 19 20 19 18 17 17 17 16 16 16 15 15 14 14 12 13 15 11 14 15 15 15 19 17 18 20 20 20 20
12 12 12 13 13 14 15 16 17 17 18 18 17 16 17 18 18 19 18 17 16 16 15 15 15 15 14 11 11 10 11 10 11 13 13 11 12 13 18 16 15 16 17 19 19
11 11 12 12 12 13 14 15 16 17 16 16 15 15 18 18 18 18 17 15 15 14 14 14 14 10 7 10 12 12 9 9 10 14 11 11 10 13 15 15 14 15 15 16 16
11 11 11 11 11 12 13 15 15 15 15 16 17 17 17 18 17 17 15 14 14 14 11 11 9 10 12 10 11 12 10 9 10 11 11 13 13 13 13 13 14 15 15 15 17
11 11 11 10 11 12 12 12 11 11 10 16 17 16 17 16 15 15 14 14 13 11 9 8 9 11 11 10 10 9 9 10 11 11 9 10 12 13 13 14 15 15 15 15 18
10 10 11 11 11 11 11 11 11 11 8 13 14 13 14 14 13 14 14 13 11 9 8 10 12 10 10 10 10 9 9 11 10 9 9 8 11 10 14 12 15 16 15 18 17
9 10 10 11 11 10 10 10 11 11 8 9 12 12 12 12 12 11 11 12 11 11 8 9 10 10 9 10 9 10 10 9 9 9 10 10 11 11 14 13 13 15 16 17 17
9 10 10 11 9 10 10 10 11 11 11 12 12 12 12 12 11 10 10 11 10 10 10 12 9 9 10 10 9 11 11 11 10 8 8 9 8 11 12 13 13 13 17 17 16
10 10 10 9 9 9 10 10 11 10 10 12 12 11 11 11 10 9 10 10 10 10 9 8 10 10 11 9 9 9 10 7 5 7 8 9 10 13 12 15 15 14 17 16 16
10 9 9 9 9 9 10 10 9 9 12 13 13 11 11 12 10 9 9 9 9 11 10 10 9 9 11 11 9 10 9 8 7 5 9 7 8 12 14 15 13 13 13 12 12
9 9 8 8 9 9 9 8 9 11 10 11 11 10 12 11 11 8 9 9 7 9 8 10 12 9 8 10 10 7 9 9 9 8 12 4 10 14 12 14 14 10 9 6 6
9 9 8 9 9 8 8 8 9 9 10 11 11 10 9 10 10 9 7 7 8 8 11 8 8 10 7 9 11 8 8 10 8 6 8 12 10 13 13 10 6 3 0 0 1
8 8 8 9 8 7 7 9 9 9 11 10 10 11 10 10 10 9 9 9 8 7 11 10 8 10 10 9 9 9 9 9 5 7 9 10 12 12 12 4 0 0 -1 -0 0
7 7 7 8 6 6 6 7 9 11 11 10 10 10 10 9 10 9 8 9 8 10 8 9 8 8 9 8 9 8 8 8 8 7 9 9 11 11 1 -0 -1 -1 -1 -1 -0
5 3 6 6 6 6 6 8 8 9 9 9 9 8 8 8 8 8 8 8 10 9 8 8 7 5 7 8 8 8 9 9 6 7 7 9 8 -1 -2 -2 -1 -1 -1 -1 0
3 4 5 5 5 6 7 7 8 7 7 8 8 8 8 8 7 8 9 8 9 7 7 7 5 6 6 7 5 6 7 8 7 5 6 6 8 -1 -3 -2 -2 -1 -2 -2 -2
2 1 3 4 5 5 6 6 6 8 7 8 8 8 7 7 7 7 7 7 6 7 6 6 5 6 7 7 7 6 6 5 5 6 7 7 6 6 -2 -2 -2 -2 -2 -2 -2
1 -0 1 2 2 2 4 4 4 4 6 7 6 6 6 6 5 5 5 4 4 5 5 5 5 5 5 5 4 3 3 2 2 3 3 5 4 5 -4 -4 -2 -2 -2 -2 -2
-1 -1 -0 -0 1 1 3 3 4 4 4 4 4 4 4 4 4 4 4 3 4 3 3 3 4 1 0 3 3 3 3 3 3 3 3 4 4 -3 -3 -3 -2 -1 -1 -2 -2
-2 -2 -2 -2 -2 -2 -1 1 0 2 0 -1 -1 1 1 0 -1 -1 -1 -1 -1 0 1 1 2 1 2 1 1 1 1 3 3 4 2 2 -2 -6 -5 -3 -2 -2 -2 -2 -2

GFSSW_850_temp_006.txt.gz
Temp
17 17 17 17 18 18 18 18 18 18 18 18 18 19 19 19 20 20 21 21 20 20 19 19 18 18 18 18 18 18 21 21 21 19 23 20 21 18 20 20 19 20 21 21 21
17 17 17 17 17 17 18 18 18 18 18 18 18 18 19 19 20 21 21 21 21 20 19 19 18 18 17 16 16 19 20 21 21 21 21 21 19 20 19 21 21 19 20 21 21
17 17 17 17 17 17 18 18 18 18 18 18 18 18 18 19 20 21 20 20 20 20 19 18 18 17 18 16 17 17 20 21 19 19 18 19 19 18 20 21 21 21 21 20 19
16 17 17 17 17 17 17 18 18 18 18 18 18 18 18 18 21 21 21 20 20 19 19 18 17 17 18 18 16 17 18 18 19 18 17 18 18 18 19 20 21 21 20 19 19
16 16 16 16 17 17 17 17 17 18 18 18 18 18 17 17 19 20 20 19 19 19 19 18 17 17 19 17 15 16 18 17 17 16 16 17 17 18 19 19 19 19 19 21 21
15 15 15 16 16 16 16 17 17 17 17 18 18 17 17 15 19 20 19 19 19 19 18 18 17 18 17 17 17 17 16 17 16 16 16 17 19 18 20 19 20 20 20 20 19
14 14 14 15 15 15 16 16 17 17 17 18 18 17 17 18 19 20 19 19 18 18 18 18 17 17 16 17 14 15 17 19 19 17 16 15 17 17 20 18 18 19 20 20 20
13 13 13 14 14 15 15 16 17 17 18 18 18 17 17 18 19 19 18 17 16 17 16 16 16 16 15 14 15 16 16 17 21 15 16 16 19 21 20 18 18 19 19 19 19
12 12 12 13 13 14 14 15 16 17 17 17 17 16 17 17 17 18 17 16 16 15 15 15 15 15 14 16 17 16 18 18 18 17 16 16 18 20 18 17 17 18 19 19 18
11 12 12 12 12 13 14 15 16 16 16 16 15 15 17 17 17 17 17 15 14 14 13 14 14 16 14 17 18 20 19 18 17 19 18 16 16 18 17 16 16 17 18 18 18
11 11 12 12 12 13 13 15 15 15 15 15 15 16 17 17 17 15 14 14 14 13 16 12 16 17 19 18 19 17 16 17 18 18 16 16 17 17 17 17 17 17 18 17 17
10 11 11 11 12 12 12 12 12 12 12 15 16 16 16 15 15 14 13 14 13 15 12 13 15 18 15 14 14 15 15 16 17 17 14 16 16 17 17 17 17 17 17 17 16
10 10 10 11 11 11 11 11 11 11 10 13 13 12 13 13 13 13 13 13 13 12 13 17 18 15 13 15 14 15 14 16 16 15 15 14 17 17 20 16 17 16 15 15 14
10 9 9 10 11 11 11 11 11 11 13 14 12 12 12 12 12 11 11 12 12 14 12 13 12 13 12 14 15 15 16 14 13 14 16 14 16 19 19 19 18 17 16 14 12
11 10 10 10 10 11 10 11 11 11 14 13 12 11 11 12 11 10 10 11 13 12 13 16 12 11 12 14 13 16 12 12 12 13 12 15 14 19 16 17 18 16 12 11 8
10 10 10 10 10 10 10 11 11 13 12 14 12 12 12 11 10 9 10 10 10 12 11 13 9 12 15 12 12 11 12 12 11 12 14 16 15 18 18 18 17 12 8 6 5
9 9 9 11 10 10 10 10 12 10 13 14 13 12 12 12 11 11 12 12 14 15 16 14 12 11 11 13 10 12 13 14 14 14 15 14 13 17 18 13 11 9 6 4 4
9 9 9 8 9 9 9 10 9 13 13 11 12 11 13 13 12 11 12 14 11 12 14 14 14 12 11 14 16 12 14 14 13 14 16 8 13 17 14 7 5 5 4 3 3
8 8 8 9 9 8 8 9 11 12 13 12 12 12 14 11 12 11 11 13 12 12 13 14 14 10 9 11 13 12 12 13 11 9 11 15 16 17 14 7 5 4 3 3 2
7 7 8 9 9 7 7 9 11 10 11 11 12 12 12 12 11 10 10 11 11 10 11 12 10 12 11 9 10 11 12 12 11 10 10 13 14 16 13 7 5 4 3 2 1
7 7 7 7 7 6 6 8 10 10 11 11 11 11 12 11 11 10 10 11 11 12 10 11 10 12 10 12 12 12 11 10 10 10 9 9 12 11 8 4 3 3 1 1 1
6 5 6 5 5 7 7 8 9 9 9 9 9 10 10 11 10 10 10 11 10 11 10 11 8 8 11 12 10 11 11 11 10 10 11 10 11 4 4 2 1 1 0 -0 -0
5 4 4 5 6 6 7 8 8 8 9 9 9 9 9 9 8 10 10 9 9 9 9 8 7 7 8 9 7 8 9 10 11 7 7 8 8 3 2 2 1 1 -0 -1 -1
3 4 4 4 5 7 7 7 7 7 8 8 9 8 8 8 8 8 9 8 6 7 6 6 6 7 7 10 10 8 8 9 8 6 7 8 9 11 5 4 2 1 0 -1 -1
2 2 2 4 4 5 6 7 6 6 6 7 7 7 7 6 6 6 7 6 5 5 5 6 5 6 6 6 6 6 6 6 6 6 4 7 7 7 7 3 1 0 0 -0 -1
-0 0 -0 1 2 3 4 5 5 5 5 6 6 6 6 5 6 5 5 5 5 5 5 5 4 5 4 6 6 4 5 5 5 5 5 5 6 8 0 -0 0 0 -0 -0 -1
-1 -2 -0 -1 0 2 3 4 2 3 1 0 2 3 3 3 0 0 0 0 2 2 3 3 3 3 3 5 4 2 2 4 6 7 7 6 4 -0 0 1 1 0 -1 -1 -1

GFSSW_850_temp_009.txt.gz
Temp
17 17 17 17 18 18 18 18 18 18 18 18 19 19 19 20 20 21 21 21 21 20 20 19 19 18 18 18 18 19 22 23 24 23 25 23 23 22 21 21 22 22 21 22 21
17 17 17 17 17 17 18 18 18 18 18 18 18 18 19 19 20 21 21 21 21 21 20 19 18 17 20 19 19 20 22 23 25 24 24 23 23 22 22 23 23 24 23 22 21
17 17 17 17 17 18 18 18 18 18 18 18 18 18 18 19 19 20 20 20 20 20 19 18 18 18 20 19 20 21 21 24 23 23 22 22 21 22 21 22 23 24 24 23 22
16 17 17 17 17 17 17 18 18 18 18 18 18 18 18 18 21 20 20 20 19 19 18 18 18 19 20 21 21 19 21 21 22 21 19 20 21 21 20 21 21 21 21 21 21
16 16 16 16 17 17 17 17 17 17 18 18 18 18 18 17 19 20 20 19 19 18 17 17 19 20 21 22 20 19 20 21 20 20 19 19 19 20 20 21 21 21 21 21 21
15 15 15 15 16 16 16 16 17 17 17 18 18 17 16 18 19 20 19 19 19 18 17 17 19 19 19 20 20 20 18 19 19 19 19 19 19 20 21 21 21 21 21 21 22
14 14 14 15 15 15 15 16 16 17 17 18 18 17 16 18 19 19 19 19 18 18 16 16 17 17 19 19 19 17 18 20 21 21 20 18 19 20 22 22 21 21 21 21 21
13 14 14 14 14 14 14 15 16 16 17 17 17 17 16 18 18 18 18 17 17 17 16 16 16 16 17 17 18 18 19 19 22 20 19 18 20 22 21 20 20 20 21 21 21
12 13 13 13 13 14 14 15 15 16 17 17 17 16 18 17 17 17 17 15 15 15 15 15 15 17 16 18 19 20 19 20 20 21 19 18 18 20 19 19 19 20 20 20 20
12 12 12 13 13 13 14 15 15 16 16 16 15 15 16 16 16 17 16 15 14 14 14 14 16 17 18 19 18 21 21 21 20 22 19 20 19 20 20 20 20 20 20 20 19
11 12 12 13 13 13 14 15 15 15 15 16 16 16 17 16 16 15 15 13 13 14 16 15 17 17 20 21 20 20 19 19 20 21 20 19 19 19 20 20 21 21 21 19 17
11 12 12 12 12 12 13 12 12 12 12 15 16 16 15 15 14 13 13 14 14 16 16 15 16 19 20 17 17 18 18 18 19 20 17 18 18 19 20 21 20 19 19 16 15
11 11 11 12 12 12 12 12 12 11 12 15 13 12 12 13 14 14 13 14 15 16 15 17 19 19 18 17 17 18 17 17 18 18 18 17 18 21 21 21 19 17 16 13 11
10 11 10 11 11 11 11 11 12 11 15 17 13 12 11 12 13 11 12 13 15 16 17 16 17 15 15 15 17 16 19 17 16 15 17 16 16 19 21 21 18 15 13 10 8
10 10 10 10 9 10 11 11 11 12 14 15 13 11 11 13 12 11 11 12 14 15 15 17 14 13 14 16 17 17 15 15 15 14 15 16 16 19 20 20 17 13 10 8 7
10 10 10 10 10 10 11 11 11 14 14 16 13 13 13 13 12 10 11 11 11 14 14 16 12 14 16 15 15 13 14 15 15 14 14 18 18 19 20 19 14 11 8 7 6
9 9 10 9 9 10 10 10 13 12 15 16 15 14 14 14 13 13 14 13 16 15 17 17 16 14 13 14 13 13 14 15 15 15 15 18 16 18 19 15 15 11 8 6 6
8 9 9 9 9 10 10 10 9 13 14 14 13 13 14 14 14 13 14 15 17 14 15 15 16 15 13 15 15 15 15 14 13 15 16 12 15 17 13 10 8 7 6 5 5
7 8 8 9 9 9 9 9 11 14 14 14 14 13 14 13 13 14 15 14 14 15 14 15 15 14 13 14 14 14 13 13 10 11 11 14 17 18 10 9 8 7 6 5 4
6 6 7 8 8 8 8 9 11 13 12 12 13 14 14 14 13 13 12 14 13 13 13 14 12 14 12 11 12 13 13 10 9 8 10 14 15 16 17 12 8 7 6 4 4
5 6 7 7 6 7 6 9 11 12 11 12 12 13 13 13 12 11 12 13 13 13 12 12 11 12 13 13 13 12 11 12 12 12 10 11 13 15 12 10 8 6 4 3 3
5 7 6 6 6 8 8 10 10 10 10 11 11 11 10 11 11 11 11 13 12 12 11 12 9 8 11 13 13 12 12 12 10 9 11 10 9 15 8 8 5 4 3 2 1
5 6 4 5 7 8 9 9 9 9 10 10 10 11 12 11 9 11 11 11 10 10 10 9 7 7 9 11 9 9 11 11 11 10 9 8 10 11 6 5 3 4 3 1 0
4 6 4 4 6 8 8 9 9 8 9 9 10 11 10 9 10 10 10 10 7 8 6 8 8 8 7 9 10 8 9 8 6 7 8 9 10 11 9 7 7 5 3 2 1
3 6 5 5 5 6 8 9 8 8 8 8 9 9 9 8 9 9 10 10 8 6 7 7 6 7 7 8 8 8 7 7 7 8 7 8 8 8 8 8 7 5 3 2 1
2 2 1 5 6 7 6 7 7 8 7 7 7 9 8 7 7 6 7 7 7 8 7 7 4 5 4 6 6 5 6 7 7 7 7 8 7 10 8 3 3 3 2 2 1
-0 1 1 3 4 5 6 6 6 7 5 4 5 5 5 6 3 3 2 3 4 4 4 4 4 3 3 5 5 3 5 6 6 7 7 6 5 1 3 3 2 2 2 1 1